Location: Cardiff
(53.7833°N, 113.6000°W)
Time: 07:38:13
(UTC+00:00)

RS-15 - Visible Passes

Search period start: 03 December 2023 00:00
Search period end: 13 December 2023 00:00
Orbit: 1890 x 2154 km, 64.8° (Epoch: 02 December)

Date Brightness Start Highest point End Pass type
(mag) Time Alt. Az. Time Alt. Az. Time Alt. Az.
03 Dec 9.5 03:21:02 10° S 03:23:01 16° SSE 03:23:01 16° SSE visible
03 Dec10.005:55:20NE05:55:20NE05:30:51SWvisible
03 Dec 9.2 08:03:07 30° NE 08:03:07 30° NE 08:08:18 10° ENE visible
03 Dec 8.3 10:10:53 52° N 10:12:09 54° NNE 10:23:05 10° E visible
03 Dec 7.9 12:18:39 29° NW 12:25:41 85° SW 12:36:44 10° SE visible
03 Dec 8.6 14:27:13 10° NW 14:36:32 31° WSW 14:45:34 10° SSW visible
04 Dec 9.3 02:46:16 10° SSE 02:49:18 18° SSE 02:49:18 18° SSE visible
04 Dec 9.6 04:54:58 10° SW 05:20:51 - NE 04:57:08 18° SW visible
04 Dec 9.4 07:28:38 22° NE 07:28:38 22° NE 07:31:56 10° ENE visible
04 Dec 8.5 09:36:24 51° NNE 09:36:24 51° NNE 09:46:32 10° E visible
04 Dec 7.9 11:44:11 39° NW 11:49:36 84° NE 12:00:42 10° SE visible
04 Dec 8.4 13:51:58 13° NW 14:01:00 39° WSW 14:10:45 10° S visible
05 Dec 9.2 02:11:56 10° SSE 02:15:35 18° SE 02:15:35 18° SE visible
05 Dec 9.2 04:19:07 10° SSW 04:23:25 27° SSW 04:23:25 27° SSW visible
05 Dec 9.7 06:54:12 15° NE 06:54:12 15° NE 06:55:38 10° NE visible
05 Dec 8.7 09:01:59 42° NE 09:01:59 42° NE 09:09:57 10° E visible
05 Dec 8.0 11:09:46 50° NNW 11:13:25 74° NE 11:24:30 10° ESE visible
05 Dec 8.1 13:17:33 20° NW 13:25:21 49° WSW 13:35:38 10° S visible
06 Dec 9.3 01:38:09 10° SE 01:41:51 16° ESE 01:41:51 16° ESE visible
06 Dec 8.8 03:43:29 10° SSW 03:49:42 35° S 03:49:42 35° S visible
06 Dec 9.7 05:55:45 10° WSW 06:19:50 - NE 05:57:33 16° WSW visible
06 Dec 9.1 08:27:37 32° NE 08:27:37 32° NE 08:33:24 10° ENE visible
06 Dec 8.1 10:35:25 60° N 10:37:07 66° NNE 10:48:10 10° ESE visible
06 Dec 8.0 12:43:12 29° NW 12:49:36 60° WSW 13:00:14 10° SSE visible
06 Dec 9.1 14:52:50 10° WNW 14:59:15 17° W 15:05:34 10° SW visible
07 Dec 9.3 01:05:23 10° ESE 01:08:07 13° E 01:08:07 13° E visible
07 Dec 8.5 03:08:05 10° S 03:15:57 40° SSE 03:15:57 40° SSE visible
07 Dec 9.2 05:19:22 10° SW 05:45:32 - NE 05:23:48 27° WSW visible
07 Dec 9.4 07:53:20 23° ENE 07:53:20 23° ENE 07:56:53 10° ENE visible
07 Dec 8.2 10:01:07 59° NNE 10:01:07 59° NNE 10:11:44 10° ESE visible
07 Dec 7.8 12:08:55 41° NW 12:13:44 71° SW 12:24:37 10° SSE visible
07 Dec 8.8 14:16:43 12° NW 14:23:56 23° W 14:31:47 10° SW visible
08 Dec 8.5 02:32:58 10° S 02:42:10 39° SE 02:42:10 39° SE visible
08 Dec 8.7 04:43:08 10° SW 04:50:01 41° SW 04:50:01 41° SW visible
08 Dec 9.7 06:57:41 10° W 07:19:07 14° ENE 07:20:27 10° ENE visible
08 Dec 8.6 09:26:54 47° ENE 09:26:54 47° ENE 09:35:14 10° E visible
08 Dec 7.8 11:34:42 57° NW 11:37:46 83° SW 11:48:46 10° SE visible
08 Dec 8.6 13:42:31 19° WNW 13:48:31 30° WSW 13:57:26 10° SSW visible
09 Dec 8.6 01:58:09 10° SSE 02:08:13 32° ESE 02:08:20 32° ESE visible
09 Dec 8.2 04:07:03 10° SW 04:16:10 58° SSW 04:16:10 58° SSW visible
09 Dec 9.6 06:21:02 10° W 06:44:57 - ENE 06:24:00 20° W visible
09 Dec 9.0 08:52:46 34° ENE 08:52:46 34° ENE 08:58:40 10° E visible
09 Dec 7.8 11:00:34 76° NNW 11:01:41 85° NE 11:12:46 10° SE visible
09 Dec 8.3 13:08:23 28° WNW 13:13:01 38° WSW 13:22:39 10° S visible
10 Dec 8.8 01:23:44 10° SSE 01:32:45 25° E 01:34:26 25° E visible
10 Dec 7.9 03:31:10 10° SSW 03:42:16 70° SSE 03:42:16 70° SSE visible
10 Dec 9.1 05:44:26 10° WSW 06:10:53 - ENE 05:50:06 32° W visible
10 Dec 9.4 08:18:42 22° ENE 08:18:42 22° ENE 08:22:05 10° E visible
10 Dec 8.0 10:26:31 72° ENE 10:26:31 72° ENE 10:36:36 10° SE visible
10 Dec 8.1 12:34:20 40° WNW 12:37:22 47° WSW 12:47:35 10° S visible
10 Dec 9.2 14:43:16 10° WNW 14:46:22 11° W 14:49:27 10° WSW visible
11 Dec 9.0 00:49:52 10° SE 00:57:23 19° E 01:00:28 17° ENE visible
11 Dec 8.0 02:55:30 10° SSW 03:07:20 61° ESE 03:08:17 60° ESE visible
11 Dec 8.6 05:07:55 10° WSW 05:16:07 48° W 05:16:07 48° W visible
11 Dec 9.8 07:23:11 10° WNW 07:44:42 13° ENE 07:45:33 10° ENE visible
11 Dec 8.4 09:52:31 50° E 09:52:31 50° E 10:00:18 10° ESE visible
11 Dec 7.9 12:00:21 55° W 12:01:38 58° WSW 12:12:13 10° SSE visible
11 Dec 9.0 14:08:10 15° WNW 14:11:12 17° W 14:17:13 10° SW visible
12 Dec 9.2 00:16:54 10° ESE 00:22:09 14° E 00:26:26 11° ENE visible
12 Dec 8.2 02:20:04 10° S 02:31:31 51° ESE 02:34:14 45° E visible
12 Dec 8.2 04:31:30 10° WSW 04:42:03 67° W 04:42:03 67° W visible
12 Dec 9.5 06:46:32 10° W 07:10:46 - ENE 06:49:52 21° WNW visible
12 Dec 9.0 09:18:36 33° E 09:18:36 33° E 09:23:52 10° ESE visible
12 Dec 7.8 11:26:26 68° SW 11:26:26 68° SW 11:36:37 10° SSE visible
12 Dec 8.7 13:34:15 22° W 13:35:55 22° W 13:43:34 10° SW visible
